Location: Memphis
(29.8667°N, 31.2500°E)
Time: 09:05:11
(UTC+00:00)

Okean 1-7 - Pass Details

Date: 03 March 2021
Orbit: 589 x 619 km, 82.5° (Epoch: 15 April)

Event Time Altitude Azimuth Distance (km) Brightness Sun altitude
Rises 18:02:41 0° 344° (NNW) 2,876 6.8 -28.3°
Reaches altitude 10° 18:05:00 10° 337° (NNW) 1,964 6.0 -28.8°
Enters shadow 18:08:53 40° 275° (W) 896 4.2 -29.6°
